Notices

What's New in latest Release from April 7th, 2021:

- Updated Glossary, including Speed of Maximum Gust, and Total Hourly Precipitation

- Updated national and regional climate services offices contacts and prices information

- Addition of station inventory lists for 1981-2010, 1971-2000, and 1961-1990 Normals.

If you haven't already, please take our survey and provide feedback about our website: https://eccc.sondage-survey.ca/f/LanguageSelection.aspx?s=442ca660-fcf1-47c0-95a9-59707d6fd709

Hourly Data Report for June 14, 2015

KELOWNA UBCO
BRITISH COLUMBIA

49°56'26.700" N
119°24'00.760" W
456.00 m
1123996
71644
VKU

Download Data

Hourly Data (June 2015)
Hourly Data Report for June 14, 2015
TIME
LST
Temp Definition
°C
Dew Point Definition
°C
Rel Hum Definition
%
Precip. Amount Definition
mm

Wind Dir Definition
10's deg

Wind Spd Definition
km/h
Visibility Definition
km
Stn Press Definition
kPa
Hmdx Definition


Wind Chill Definition


Weather Definition


00:00 10.0 4.7 69 0.0       96.37     LegendNANA
01:00 9.7 4.1 68 0.0       96.41     LegendNANA
02:00 8.6 4.3 74 0.0       96.43     LegendNANA
03:00 8.6 3.7 71 0.0       96.47     LegendNANA
04:00 7.7 3.9 77 0.0       96.53     LegendNANA
05:00 8.7 4.6 75 0.0       96.57     LegendNANA
06:00 12.3 4.8 60 0.0       96.61     LegendNANA
07:00 14.7 5.7 55 0.0       96.65     LegendNANA
08:00 17.0 6.3 49 0.0       96.65     LegendNANA
09:00 18.9 6.2 43 0.0       96.61     LegendNANA
10:00 20.8 5.1 36 0.0       96.56     LegendNANA
11:00 21.5 3.9 32 0.0       96.53     LegendNANA
12:00 23.1 2.4 26 0.0       96.49     LegendNANA
13:00 24.5 2.6 24 0.0       96.43     LegendNANA
14:00 26.0 1.0 20 0.0       96.38     LegendNANA
15:00 24.6 1.3 22 0.0       96.34     LegendNANA
16:00 24.4 3.0 25 0.0       96.32     LegendNANA
17:00 24.9 3.4 25 0.0       96.28     LegendNANA
18:00 22.3 4.0 30 0.0       96.30     LegendNANA
19:00 21.7 3.5 30 0.0       96.30     LegendNANA
20:00 19.8 3.4 34 0.0       96.32     LegendNANA
21:00 18.2 4.6 41 0.0       96.36     LegendNANA
22:00 16.8 5.9 49 0.0       96.40     LegendNANA
23:00 13.0 6.1 63 0.0       96.44     LegendNANA

Notes on Data Quality.

Legend

  • E = Estimated
  • M = Missing
  • NA = Not Available*
  • [empty] = Indicates an unobserved value
Date modified: